Location: Balaclava NSW 2575, Australia
(34.4510°S, 150.4953°E)
Time: 04:20:12
(UTC+10:00)

Explorer 11/Cluster Stage 4 - All Passes

Search period start: 19 June 2021 00:00
Search period end: 29 June 2021 00:00
Orbit: 467 x 1257 km, 28.8° (Epoch: 17 June)

Date Brightness Start Highest point End Pass type
(mag) Time Alt. Az. Time Alt. Az. Time Alt. Az.
19 Jun - 15:42:21 10° NNW 15:45:06 20° NNE 15:48:07 10° ENE daylight
19 Jun - 17:29:04 10° WNW 17:32:52 39° N 17:37:24 10° ENE visible
19 Jun - 19:16:40 10° WNW 19:20:59 38° N 19:26:16 10° ENE visible
19 Jun - 21:05:04 10° WNW 21:09:17 23° NNW 21:14:11 10° NNE visible
20 Jun - 15:31:14 10° NW 15:34:06 21° NNE 15:37:11 10° ENE daylight
20 Jun - 17:18:12 10° WNW 17:21:53 38° N 17:26:13 10° ENE visible
20 Jun - 19:05:53 10° WNW 19:09:56 34° N 19:14:53 10° NE visible
20 Jun - 20:54:31 10° WNW 20:58:11 19° NNW 21:02:22 10° NNE visible
21 Jun - 15:20:09 10° NW 15:23:07 23° NNE 15:26:14 10° ENE daylight
21 Jun - 17:07:20 10° WNW 17:10:55 38° N 17:15:02 10° ENE daylight
21 Jun - 18:55:07 10° WNW 18:58:56 30° N 19:03:28 10° NE visible
21 Jun - 20:44:08 10° NW 20:47:06 15° NNW 20:50:23 10° NNE visible
22 Jun - 15:09:05 10° NW 15:12:08 25° NNE 15:15:19 10° ENE daylight
22 Jun - 16:56:28 10° WNW 16:59:57 36° N 17:03:53 10° ENE daylight
22 Jun - 18:44:23 10° WNW 18:47:55 26° NNW 18:52:03 10° NE visible
22 Jun - 20:34:07 10° NW 20:36:01 12° NNW 20:38:05 10° N visible
23 Jun - 13:12:04 10° N 13:13:27 12° NNE 13:14:49 10° NE daylight
23 Jun - 14:58:00 10° NW 15:01:11 27° N 15:04:23 10° ENE daylight
23 Jun - 16:45:36 10° WNW 16:48:59 35° N 16:52:45 10° ENE daylight
23 Jun - 18:33:42 10° WNW 18:36:55 22° NNW 18:40:35 10° NE visible
24 Jun - 13:00:16 10° NNW 13:02:27 14° NNE 13:04:32 10° NE daylight
24 Jun - 14:46:56 10° NW 14:50:13 29° N 14:53:28 10° ENE daylight
24 Jun - 16:34:43 10° WNW 16:38:02 32° N 16:41:38 10° ENE daylight
24 Jun - 18:23:04 10° WNW 18:25:55 19° NNW 18:29:05 10° NNE visible
25 Jun - 12:48:41 10° NNW 12:51:27 17° NNE 12:54:02 10° ENE daylight
25 Jun - 14:35:52 10° WNW 14:39:16 31° N 14:42:33 10° ENE daylight
25 Jun - 16:23:51 10° WNW 16:27:06 30° N 16:30:30 10° NE daylight
25 Jun - 18:12:31 10° NW 18:14:55 16° NNW 18:17:30 10° NNE visible
26 Jun - 12:37:11 10° NW 12:40:27 21° NNE 12:43:25 10° ENE daylight
26 Jun - 14:24:47 10° WNW 14:28:20 33° N 14:31:39 10° ENE daylight
26 Jun - 16:12:58 10° WNW 16:16:08 28° N 16:19:24 10° NE daylight
26 Jun - 18:02:10 10° NW 18:03:55 13° NNW 18:05:45 10° N visible
27 Jun - 10:40:44 10° NNE 10:41:27 10° NNE 10:42:09 10° NNE daylight
27 Jun - 12:25:45 10° NW 12:29:28 24° NNE 12:32:43 10° ENE daylight
27 Jun - 14:13:41 10° WNW 14:17:23 35° N 14:20:45 10° ENE daylight
27 Jun - 16:02:04 10° WNW 16:05:11 25° NNW 16:08:17 10° NE daylight
27 Jun - 17:52:32 10° NNW 17:52:54 10° NNW 17:53:16 10° NNW visible
28 Jun - 10:27:49 10° N 10:30:24 13° NNE 10:32:45 10° NE daylight
28 Jun - 12:14:21 10° NW 12:18:28 28° N 12:22:00 10° ENE daylight
28 Jun - 14:02:34 10° WNW 14:06:25 36° N 14:09:51 10° ENE daylight
28 Jun - 15:51:11 10° WNW 15:54:12 23° NNW 15:57:10 10° NE daylight
